Previsão horária em Abramivs'ka Dolyna

Hoje, 16 Maio, Domingo

Tempo Temperatura Precipitação Vento Pressão Humidade
00:00 +12°C° 0 mm 2 m/s 739 mmHg 81%
01:00 +12°C° 0 mm 2 m/s 739 mmHg 83%
02:00 +12°C° 0 mm 2 m/s 739 mmHg 84%
03:00 +10°C° 0 mm 2 m/s 739 mmHg 86%
04:00 +10°C° 0 mm 3 m/s 739 mmHg 88%
05:00 +10°C° 0 mm 3 m/s 739 mmHg 89%
06:00 +12°C° 0 mm 3 m/s 739 mmHg 84%
07:00 +14°C° 0 mm 3 m/s 739 mmHg 79%
08:00 +17°C° 0 mm 3 m/s 739 mmHg 77%
09:00 +18°C° 0.1 mm 4 m/s 739 mmHg 70%
10:00 +20°C° 0.1 mm 4 m/s 739 mmHg 63%
11:00 +21°C° 0.1 mm 5 m/s 739 mmHg 57%
12:00 +22°C° 0.2 mm 5 m/s 739 mmHg 54%
13:00 +22°C° 0.2 mm 5 m/s 738 mmHg 51%
14:00 +23°C° 0.2 mm 5 m/s 738 mmHg 48%
15:00 +23°C° 0 mm 5 m/s 738 mmHg 51%
16:00 +22°C° 0 mm 4 m/s 737 mmHg 55%
17:00 +22°C° 0 mm 4 m/s 737 mmHg 58%
18:00 +20°C° 0.1 mm 3 m/s 737 mmHg 64%
19:00 +19°C° 0.1 mm 3 m/s 737 mmHg 69%
20:00 +17°C° 0.1 mm 2 m/s 737 mmHg 75%
21:00 +17°C° 0 mm 2 m/s 736 mmHg 76%
22:00 +16°C° 0 mm 2 m/s 736 mmHg 77%
23:00 +16°C° 0 mm 1 m/s 736 mmHg 78%

Amanhã, 17 Maio, Segunda-feira

Tempo Temperatura Precipitação Vento Pressão Humidade
00:00 +15°C° 0.1 mm 1 m/s 736 mmHg 79%
01:00 +15°C° 0.1 mm 1 m/s 736 mmHg 80%
02:00 +14°C° 0.1 mm 1 m/s 736 mmHg 81%
03:00 +14°C° 0 mm 1 m/s 736 mmHg 82%
04:00 +14°C° 0 mm 1 m/s 735 mmHg 84%
05:00 +14°C° 0 mm 2 m/s 735 mmHg 86%
06:00 +15°C° 0 mm 2 m/s 735 mmHg 83%
07:00 +16°C° 0 mm 2 m/s 735 mmHg 80%
08:00 +17°C° 0 mm 2 m/s 735 mmHg 77%
09:00 +18°C° 0.6 mm 3 m/s 735 mmHg 73%
10:00 +19°C° 0.6 mm 3 m/s 735 mmHg 70%
11:00 +20°C° 0.6 mm 3 m/s 735 mmHg 66%
12:00 +20°C° 0.7 mm 2 m/s 734 mmHg 64%
13:00 +21°C° 0.7 mm 2 m/s 734 mmHg 62%
14:00 +22°C° 0.7 mm 1 m/s 734 mmHg 60%
15:00 +22°C° 0.7 mm 1 m/s 734 mmHg 61%
16:00 +22°C° 0.7 mm 1 m/s 733 mmHg 62%
17:00 +22°C° 0.7 mm 1 m/s 733 mmHg 63%
18:00 +20°C° 0.4 mm 1 m/s 733 mmHg 69%
19:00 +19°C° 0.4 mm 1 m/s 733 mmHg 74%
20:00 +16°C° 0.4 mm 1 m/s 733 mmHg 80%
21:00 +16°C° 0.1 mm 1 m/s 733 mmHg 82%
22:00 +15°C° 0.1 mm 1 m/s 733 mmHg 84%
23:00 +15°C° 0.1 mm 1 m/s 732 mmHg 87%

Depois de amanhã, 18 Maio, Terça-feira

Tempo Temperatura Precipitação Vento Pressão Humidade
00:00 +14°C° 0 mm 1 m/s 732 mmHg 87%
01:00 +14°C° 0 mm 2 m/s 732 mmHg 88%
02:00 +14°C° 0 mm 2 m/s 731 mmHg 89%
03:00 +14°C° 0.3 mm 2 m/s 731 mmHg 90%
04:00 +13°C° 0.3 mm 2 m/s 731 mmHg 92%
05:00 +13°C° 0.3 mm 2 m/s 731 mmHg 94%
06:00 +13°C° 0.4 mm 3 m/s 731 mmHg 91%
07:00 +14°C° 0.4 mm 3 m/s 731 mmHg 88%
08:00 +15°C° 0.4 mm 4 m/s 731 mmHg 85%
09:00 +15°C° 1.2 mm 5 m/s 731 mmHg 87%
10:00 +15°C° 1.2 mm 5 m/s 730 mmHg 88%
11:00 +14°C° 1.2 mm 6 m/s 730 mmHg 89%
12:00 +15°C° 0.4 mm 6 m/s 730 mmHg 85%
13:00 +16°C° 0.4 mm 5 m/s 730 mmHg 80%
14:00 +18°C° 0.4 mm 4 m/s 730 mmHg 76%
15:00 +18°C° 0.3 mm 4 m/s 730 mmHg 77%
16:00 +17°C° 0.3 mm 4 m/s 730 mmHg 78%
17:00 +17°C° 0.3 mm 4 m/s 730 mmHg 79%
18:00 +15°C° 0.9 mm 5 m/s 730 mmHg 84%
19:00 +13°C° 0.9 mm 6 m/s 731 mmHg 88%
20:00 +11°C° 0.9 mm 6 m/s 731 mmHg 93%
21:00 +11°C° 1.7 mm 7 m/s 732 mmHg 93%
22:00 +11°C° 1.7 mm 8 m/s 732 mmHg 93%
23:00 +10°C° 1.7 mm 9 m/s 732 mmHg 94%

19 Maio, Quarta-feira

Tempo Temperatura Precipitação Vento Pressão Humidade
00:00 +10°C° 1.6 mm 9 m/s 733 mmHg 93%
01:00 +10°C° 1.6 mm 9 m/s 733 mmHg 93%
02:00 +9°C° 1.6 mm 10 m/s 733 mmHg 92%
03:00 +9°C° 0.9 mm 10 m/s 733 mmHg 92%
04:00 +9°C° 0.9 mm 10 m/s 733 mmHg 91%
05:00 +9°C° 0.9 mm 10 m/s 734 mmHg 91%
06:00 +11°C° 1.8 mm 8 m/s 737 mmHg 82%
07:00 +10°C° 1.8 mm 8 m/s 737 mmHg 87%
08:00 +9°C° 1.8 mm 7 m/s 737 mmHg 91%
09:00 +11°C° 0.1 mm 9 m/s 735 mmHg 85%
10:00 +11°C° 0.1 mm 9 m/s 736 mmHg 82%
11:00 +12°C° 0.1 mm 9 m/s 736 mmHg 78%
12:00 +13°C° 0.1 mm 8 m/s 738 mmHg 75%
13:00 +15°C° 0.1 mm 8 m/s 738 mmHg 72%
14:00 +15°C° 0.1 mm 8 m/s 738 mmHg 68%
15:00 +11°C° 0.1 mm 7 m/s 737 mmHg 85%
16:00 +14°C° 0.1 mm 6 m/s 738 mmHg 78%
17:00 +16°C° 0.1 mm 6 m/s 738 mmHg 72%
18:00 +14°C° 0 mm 4 m/s 738 mmHg 76%
19:00 +13°C° 0 mm 3 m/s 739 mmHg 81%
20:00 +12°C° 0 mm 1 m/s 739 mmHg 86%
21:00 +12°C° 0 mm 1 m/s 739 mmHg 86%
22:00 +11°C° 0 mm 1 m/s 739 mmHg 87%
23:00 +11°C° 0 mm 1 m/s 739 mmHg 88%

20 Maio, Quinta-feira

Tempo Temperatura Precipitação Vento Pressão Humidade
00:00 +11°C° 0 mm 1 m/s 739 mmHg 88%
01:00 +11°C° 0 mm 1 m/s 739 mmHg 88%
02:00 +11°C° 0 mm 1 m/s 739 mmHg 88%
03:00 +11°C° 0 mm 1 m/s 739 mmHg 88%
04:00 +11°C° 0 mm 1 m/s 739 mmHg 88%
05:00 +12°C° 0 mm 1 m/s 739 mmHg 87%
06:00 +13°C° 0 mm 2 m/s 739 mmHg 84%
07:00 +13°C° 0 mm 3 m/s 739 mmHg 81%
08:00 +14°C° 0 mm 3 m/s 739 mmHg 78%
09:00 +14°C° 0.5 mm 3 m/s 739 mmHg 82%
10:00 +13°C° 0.5 mm 3 m/s 739 mmHg 87%
11:00 +13°C° 0.5 mm 3 m/s 739 mmHg 91%
12:00 +13°C° 1.9 mm 3 m/s 738 mmHg 92%
13:00 +13°C° 1.9 mm 3 m/s 738 mmHg 92%
14:00 +13°C° 1.9 mm 4 m/s 738 mmHg 92%
15:00 +13°C° 0.3 mm 3 m/s 738 mmHg 92%
16:00 +14°C° 0.3 mm 2 m/s 738 mmHg 92%
17:00 +14°C° 0.3 mm 2 m/s 738 mmHg 93%
18:00 +14°C° 0.3 mm 1 m/s 738 mmHg 94%
19:00 +13°C° 0.3 mm 1 m/s 738 mmHg 95%
20:00 +13°C° 0.3 mm 1 m/s 738 mmHg 96%
21:00 +13°C° 1 mm 1 m/s 738 mmHg 96%
22:00 +12°C° 1 mm 1 m/s 739 mmHg 97%
23:00 +12°C° 1 mm 2 m/s 739 mmHg 97%

21 Maio, Sexta-feira

Tempo Temperatura Precipitação Vento Pressão Humidade
00:00 +12°C° 1.1 mm 2 m/s 738 mmHg 97%
01:00 +11°C° 1.1 mm 3 m/s 738 mmHg 97%
02:00 +11°C° 1.1 mm 4 m/s 738 mmHg 97%
03:00 +10°C° 1 mm 4 m/s 738 mmHg 97%
04:00 +10°C° 1 mm 4 m/s 739 mmHg 97%
05:00 +8°C° 1 mm 5 m/s 739 mmHg 96%
06:00 +8°C° 0.3 mm 5 m/s 739 mmHg 96%
07:00 +8°C° 0.3 mm 5 m/s 740 mmHg 96%
08:00 +8°C° 0.3 mm 5 m/s 740 mmHg 95%
09:00 +9°C° 0 mm 5 m/s 741 mmHg 94%
10:00 +9°C° 0 mm 5 m/s 741 mmHg 92%
11:00 +10°C° 0 mm 5 m/s 742 mmHg 90%
12:00 +12°C° 0 mm 5 m/s 742 mmHg 84%
13:00 +13°C° 0 mm 5 m/s 742 mmHg 78%
14:00 +14°C° 0 mm 5 m/s 742 mmHg 72%
15:00 +14°C° 0 mm 5 m/s 743 mmHg 72%
16:00 +14°C° 0 mm 4 m/s 743 mmHg 72%
17:00 +14°C° 0 mm 3 m/s 743 mmHg 73%
18:00 +13°C° 0 mm 3 m/s 744 mmHg 77%
19:00 +13°C° 0 mm 2 m/s 744 mmHg 81%
20:00 +12°C° 0 mm 2 m/s 744 mmHg 85%
21:00 +10°C° 0 mm 2 m/s 745 mmHg 86%
22:00 +10°C° 0 mm 2 m/s 745 mmHg 88%
23:00 +9°C° 0 mm 2 m/s 745 mmHg 90%
Mostrar mais

Necessitamos do seu Consentimento

A Meteoprog e os seus Fornecedores de Serviços podem armazenar e aceder a dados pessoais como cookies, identificadores do dispositivo ou outras tecnologias semelhantes existentes no seu dispositivo e processar estes dados para personalizar conteúdos e anúncios, assim como funcionalidades nas redes sociais e análise de tráfego.

  • Armazenar e/ou aceder a informações no seu dispositivo

    Os cookies, identificadores do dispositivo ou outras informações podem ser armazenados ou acedidos no seu dispositivo, para os fins acima indicados.

  • Anúncios e conteúdos personalizados, medição de anúncios e conteúdos, dados sobre o público-alvo e desenvolvimento de produtos

    Os anúncios e os conteúdos podem ser personalizados com base num perfil. Podem ser adicionados dados adicionais para uma maior personalização dos anúncios e dos conteúdos. A eficácia dos anúncios e dos conteúdos pode ser medida. Podem ser obtidas informações sobre o público que visualizou os anúncios e os conteúdos. Estes dados podem ser usados para desenvolver ou melhorar sistemas, softwares ou a experiência do utilizador.

Ao clicar em "Eu concordo”, permitirá o uso de cookies, identificadores do dispositivo e web beacons mencionados ou outras tecnologias semelhantes. As configurações do navegador do seu dispositivo podem ser alteradas.

Para certos fins, podem ser invocados interesses legítimos ao invés de consentimento. Pode ler mais informação sobre este assunto na nossa Política de Privacidade e Cookies.